COSMOS 2535 DEB, 44640

Orbit data source: Space-Track

COSMOS 2535 DEB, 44640 is space debris in SSO originally from a launch on Wed, 10 Jul 2019 UTC launched from the Plesetsk Missile And Space Complex (PKMTR). Debris objects in space refer to the collection of defunct objects orbiting the Earth. Examples of debris include non-operational satellites, rocket bodies, and fragments generated from explosions, collisions, or faulty payload assembly.

Loading next visibility...
Identifier
44640, 2019-039L
Orbit
SSO
Country
Flag of CISCIS
Related business
Manufacturer
Unknown
Mission
Spacecraft
Bus & Motor
Unknown
Mass
Unknown
Launch date (UTC)
2019-07-10 (7 years ago)
Launch vehicle
Unknown
Launch site
Plesetsk Missile And Space Complex (PKMTR)
Object type
Payload
Rocket body
Debris
Shape & HBR
Unknown shape, 0.1 m
Radar Cross Section
Small (<0.1 m²)

Expand to show TLE details & history
Last TLE update: 17 hours ago

TLE from 17 hours ago
0 COSMOS 2535 DEB
1 44640U 19039L   26074.20787664  .00002104  00000-0  28358-3 0  9995
2 44640  97.7569  61.7380 0059859  20.8560 339.5074 14.78957960346599
Epoch: 2026-03-15T04:59Z
TLE epoch observation values (Epoch: 2026-03-15T04:59:20.541Z)
Latitude
-0.00004°
Longitude
174.08441°
Altitude
596.352 km
Speed
7.583 km/s
True Right ascension
04h 06m 57s
True Declination
0° 00' 00"
Sunlit
Object was in daylight at epoch
Visualization orbit readout
Latitude
Unknown
Longitude
Unknown
Altitude
Unknown
Speed
Unknown
Apparent Right ascension
Unknown
Apparent Declination
Unknown
Sunlit
N/A
Visualization observer readout
Local Sidereal Time
02:45:14
Azimuth
Unknown
Elevation
Unknown
Doppler factor
Unknown
Orbital elements
Apogee altitude
671.599 km
Perigee altitude
587.703 km
Semi-major axis
7,007.788 km
Eccentricity
0.00599
Inclination
97.7569°
RAAN
61.738°
Arg. of periapsis
20.856°
True anomaly
339.26557°
Mean anomaly
339.5074°
Eccentric anomaly
339.38666°
Mean motion
3.69974 °/min
Orbital period
97.3 mins
BSTAR
0.00028358
Loading maneuver chart data...
Computing Atmospheric mass density...

Documentation

Showing up to 5 results
|